Simultaneous Nadir Overpasses (SNOs) Predictions

Prediction of SNOs between METOP-B and NOAA-19 Satellite Orbit:

Table of predicted SNOs for the next 14.0 days since TLE Epoch: 11/14/2015
Index Date (METOP-B) Time (METOP-B) Lat,Lon (METOP-B) SZA (METOP-B ) Date (NOAA-19) Time (NOAA-19) Lat,Lon (NOAA-19) SZA (NOAA-19 ) Distance(km) Time Diff (sec)
1 11/16/2015 11:10:15 75.55, 11.35 94.20 11/16/2015 11:09:02 75.58, 10.54 94.22 22.56 73
2 11/16/2015 12:00:59 -75.43, 178.32 85.92 11/16/2015 11:59:57 -75.43, 178.30 85.93 1.06 62
3 11/16/2015 12:51:39 75.43, -14.35 94.09 11/16/2015 12:51:01 75.42, -14.46 94.08 3.15 38
4 11/16/2015 13:42:21 -75.41, 152.91 85.92 11/16/2015 13:41:59 -75.41, 152.85 85.93 1.88 22
5 11/16/2015 14:33:02 75.36, -39.90 94.04 11/16/2015 14:33:02 75.36, -39.76 94.04 4.04 0
6 11/16/2015 15:23:43 -75.39, 127.51 85.93 11/16/2015 15:24:01 -75.39, 127.40 85.93 3.01 18
7 11/16/2015 16:14:24 75.34, -65.31 94.03 11/16/2015 16:15:04 75.34, -65.21 94.04 2.79 40
8 11/16/2015 17:05:06 -75.32, 101.96 85.98 11/16/2015 17:06:02 -75.33, 102.10 85.97 3.96 56
9 11/16/2015 17:55:51 75.08, -91.42 93.78 11/16/2015 17:57:01 75.09, -89.94 93.81 42.31 70
10 11/27/2015 00:33:59 75.48, 170.19 96.43 11/27/2015 00:32:49 75.49, 170.08 96.44 2.96 70
11 11/27/2015 01:24:41 -75.48, -22.50 83.57 11/27/2015 01:23:50 -75.48, -22.63 83.57 3.73 51
12 11/27/2015 02:15:21 75.46, 144.78 96.42 11/27/2015 02:14:50 75.43, 144.78 96.39 3.86 31
13 11/27/2015 03:06:04 -75.41, -48.05 83.63 11/27/2015 03:05:51 -75.41, -47.93 83.62 3.28 13
14 11/27/2015 03:56:43 75.44, 119.37 96.41 11/27/2015 03:56:52 75.41, 119.33 96.38 3.38 9
15 11/27/2015 04:47:26 -75.39, -73.46 83.64 11/27/2015 04:47:53 -75.40, -73.39 83.63 2.28 27
16 11/27/2015 05:38:06 75.37, 93.81 96.35 11/27/2015 05:38:54 75.39, 93.87 96.38 3.23 48
17 11/27/2015 06:28:48 -75.36, -98.87 83.65 11/27/2015 06:29:55 -75.38, -98.84 83.63 1.78 67
18 11/27/2015 07:19:40 74.77, 66.76 95.76 11/27/2015 07:20:44 74.81, 70.13 95.83 98.54 64




NCC Satellite Simultaneous Nadir Overpasses (SNOs) Prediction Service
